(285029) = 2011 EW10

Discovered at Kitt Peak on 2003-03-27 by Spacewatch.

Orbit

Orbit type: Main Belt

Note: WebGL enabled browser required.

epoch2023-02-25.0
epoch JD2460000.5
perihelion date2023-01-19.57744
perihelion JD2459964.07744
argument of perihelion (°)333.32038
ascending node (°)150.88614
inclination (°)6.63825
eccentricity0.1653259
perihelion distance (AU)2.1277688
Tisserand w.r.t. Jupiter3.4
ΔV w.r.t. Earth (km/sec)9.4
semimajor axis (AU)2.5492211
mean anomaly (°)8.81989
mean daily motion (°/day)0.24215450
aphelion distance (AU)2.971
period (years)4.07
P-vector [x]-0.56364208
P-vector [y]0.77700654
P-vector [z]0.28030063
Q-vector [x]-0.82410200
Q-vector [y]-0.55207346
Q-vector [z]-0.12677062
absolute magnitude17.82
phase slope0.15
uncertainty0
referenceMPEC 2023-F16
observations used189
oppositions12
arc length (days)7793
first opposition used2001
last opposition used2023
residual rms (arc-secs)0.89
perturbers coarse indicatorM-v
perturbers precise indicator003Ek
first observation date used2001-11-12.0
last observation date used2023-03-15.0
computer nameMPCLINUX
JD of orbit computation2456581.492835
perihelion JD uncertainty (days)3.2093E-04
argument of perihelion uncertainty (°)1.1908E-04
ascending node uncertainty (°)8.4271E-05
inclination uncertainty (°)1.2974E-05
eccentricity uncertainty 1.1986E-07
perihelion distance uncertainty (AU)3.1160E-07
Minimum Orbit Intersection Distances (in AU)
for orbit epoch: 2460000.5, reference: E2023-F16
Mercury1.80002
Venus1.41418
Earth1.14519
Mars0.49044
Jupiter2.09827
Saturn6.75889
Uranus16.1691
Neptune27.1012

Observations

199 total observations over interval: 2001 11 12.243460 – 2023 03 15.262718
These data are available for download (format description).

Date (UT) J2000 RA J2000 Dec Magn Location Ref
2001 11 12.243460 01 35 28.466 +00 01 16.80 21.67 V 645 – Apache Point-Sloan Digital Sky Survey MPS 378828
2001 11 12.246932 01 35 28.318 +00 01 16.11 22.60   645 – Apache Point-Sloan Digital Sky Survey MPS 378828
2003 03 27.38711 12 53 27.05 +02 00 10.4 21.1 V 691 – Steward Observatory, Kitt Peak-Spacewatch MPS 378828
2003 03 27.41358 12 53 25.72 +02 00 23.5 20.9 V 691 – Steward Observatory, Kitt Peak-Spacewatch MPS 378828
2003 03 27.43986 12 53 24.38 +02 00 36.3 21.0 V 691 – Steward Observatory, Kitt Peak-Spacewatch MPS 378828
2003 04 09.21792 12 42 57.61 +03 38 44.5 21.4 V 691 – Steward Observatory, Kitt Peak-Spacewatch MPS 378828
2003 04 09.24409 12 42 56.36 +03 38 55.3 21.6 V 691 – Steward Observatory, Kitt Peak-Spacewatch MPS 378828
2003 04 09.27163 12 42 55.02 +03 39 06.3 21.7 V 691 – Steward Observatory, Kitt Peak-Spacewatch MPS 378828
2005 10 20.308247 01 14 30.512 -00 56 51.63 21.24 V 645 – Apache Point-Sloan Digital Sky Survey MPS 390540
2005 10 20.311719 01 14 30.320 -00 56 53.13 21.94   645 – Apache Point-Sloan Digital Sky Survey MPS 390540
2007 02 04.23703 12 26 12.22 -00 03 36.0 21.6 R 809 – European Southern Observatory, La Silla MPS 378828
2007 02 04.24168 12 26 12.27 -00 03 35.3 21.5 R 809 – European Southern Observatory, La Silla MPS 378828
2007 02 04.24631 12 26 12.28 -00 03 34.2 21.1 R 809 – European Southern Observatory, La Silla MPS 378828
2007 02 04.25095 12 26 12.31 -00 03 33.3 21.3 R 809 – European Southern Observatory, La Silla MPS 378828
2007 03 10.27821 12 14 13.61 +03 51 39.7 20.7 V 691 – Steward Observatory, Kitt Peak-Spacewatch MPS 378828
2007 03 10.29587 12 14 12.75 +03 51 49.6 20.4 V 691 – Steward Observatory, Kitt Peak-Spacewatch MPS 378828
2007 03 10.31697 12 14 11.80 +03 52 00.7 20.5 V 691 – Steward Observatory, Kitt Peak-Spacewatch MPS 378828
2007 03 20.18805 12 06 27.00 +05 20 15.0 20.9 V 691 – Steward Observatory, Kitt Peak-Spacewatch MPS 378828
2007 03 20.20578 12 06 26.10 +05 20 23.9 20.5 V 691 – Steward Observatory, Kitt Peak-Spacewatch MPS 378828
2007 03 20.22349 12 06 25.22 +05 20 33.0 20.6 V 691 – Steward Observatory, Kitt Peak-Spacewatch MPS 378828
2009 09 24.37879 00 56 39.12 -00 54 12.6 21.3 V G96 – Mt. Lemmon Survey MPS 378828
2009 09 24.39573 00 56 38.32 -00 54 19.6 21.6 V G96 – Mt. Lemmon Survey MPS 378828
2009 09 24.40441 00 56 37.89 -00 54 24.0 21.4 V G96 – Mt. Lemmon Survey MPS 378828
2009 10 17.19157 00 37 50.08 -03 39 04.3 21.2 V G96 – Mt. Lemmon Survey MPS 378828
2009 10 17.19896 00 37 49.72 -03 39 07.0 21.4 V G96 – Mt. Lemmon Survey MPS 378828
2009 10 17.20628 00 37 49.33 -03 39 09.7 22.2 V G96 – Mt. Lemmon Survey MPS 378828
2009 10 17.21368 00 37 49.00 -03 39 12.6 20.8 V G96 – Mt. Lemmon Survey MPS 378828
2011 01 26.41256 11 35 54.40 +03 09 02.1   691 – Steward Observatory, Kitt Peak-Spacewatch MPS 377300
2011 01 26.43025 11 35 54.40 +03 09 06.0   691 – Steward Observatory, Kitt Peak-Spacewatch MPS 377300
2011 01 26.44795 11 35 54.45 +03 09 10.1   691 – Steward Observatory, Kitt Peak-Spacewatch MPS 377300
2011 02 23.22150 11 25 56.42 +06 18 01.5 20.5 V 691 – Steward Observatory, Kitt Peak-Spacewatch MPS 377300
2011 02 23.23924 11 25 55.63 +06 18 11.0 20.6 V 691 – Steward Observatory, Kitt Peak-Spacewatch MPS 377300
2011 02 23.25698 11 25 54.88 +06 18 20.5 20.5 V 691 – Steward Observatory, Kitt Peak-Spacewatch MPS 377300
2011 03 03.30111 11 19 54.22 +07 32 37.5 19.6 R H15 – ISON-NM Observatory, Mayhill MPS 373614
2011 03 03.31518 11 19 53.51 +07 32 45.5 19.6 R H15 – ISON-NM Observatory, Mayhill MPS 373614
2011 03 03.32930 11 19 52.80 +07 32 53.5 19.6 R H15 – ISON-NM Observatory, Mayhill MPS 373614
2011 03 03.34503 11 19 52.01 +07 33 02.4 19.6 R H15 – ISON-NM Observatory, Mayhill MPS 373614
2011 03 04.39765 11 19 01.88 +07 42 50.1 19.9 V G96 – Mt. Lemmon Survey MPS 373614
2011 03 04.40501 11 19 01.52 +07 42 54.3 19.7 V G96 – Mt. Lemmon Survey MPS 373614
2011 03 04.41971 11 19 00.76 +07 43 03.1 19.9 V G96 – Mt. Lemmon Survey MPS 373614
2011 03 09.47997 11 14 57.602 +08 29 36.71 20.4 r F51 – Pan-STARRS 1, Haleakala MPS 387293
2011 03 09.49109 11 14 57.044 +08 29 42.76 20.3 r F51 – Pan-STARRS 1, Haleakala MPS 387293
2011 03 09.50703 11 14 56.242 +08 29 51.12 20.9 g F51 – Pan-STARRS 1, Haleakala MPS 387293
2011 03 09.67854 11 14 48.17 +08 31 22.9 19.7 R D29 – Purple Mountain Observatory, XuYi Station MPS 373614
2011 03 09.69068 11 14 47.58 +08 31 29.0 19.8 R D29 – Purple Mountain Observatory, XuYi Station MPS 373614
2011 03 09.70283 11 14 46.94 +08 31 35.7 20.2 R D29 – Purple Mountain Observatory, XuYi Station MPS 373614
2011 03 09.71497 11 14 46.33 +08 31 41.7 20.1 R D29 – Purple Mountain Observatory, XuYi Station MPS 373614
2011 04 01.90195 10 59 17.05 +11 20 14.8 20.3 R A77 – Observatoire Chante-Perdrix, Dauban MPS 377300
2011 04 01.92226 10 59 16.57 +11 20 20.5 20.3 R A77 – Observatoire Chante-Perdrix, Dauban MPS 377300
2011 04 01.94256 10 59 16.00 +11 20 28.2 20.2 R A77 – Observatoire Chante-Perdrix, Dauban MPS 377300
2011 04 02.88008 10 58 51.63 +11 24 57.8 20.1   A77 – Observatoire Chante-Perdrix, Dauban MPS 377300
2011 04 02.90416 10 58 50.89 +11 25 03.0 19.4   A77 – Observatoire Chante-Perdrix, Dauban MPS 377300
2011 04 02.92823 10 58 50.30 +11 25 10.8 20.7   A77 – Observatoire Chante-Perdrix, Dauban MPS 377300
2013 09 04.47802 00 36 08.481 -01 12 13.94 21.5 w F51 – Pan-STARRS 1, Haleakala MPS 476039
2013 09 04.49300 00 36 07.942 -01 12 19.72 21.4 w F51 – Pan-STARRS 1, Haleakala MPS 476039
2013 09 25.37994 00 20 55.96 -03 48 46.4 21.1 V G96 – Mt. Lemmon Survey MPS 478631
2013 09 25.38594 00 20 55.65 -03 48 49.7 21.1 V G96 – Mt. Lemmon Survey MPS 478631
2013 09 25.39192 00 20 55.32 -03 48 52.1 20.5 V G96 – Mt. Lemmon Survey MPS 478631
2013 09 25.39796 00 20 55.06 -03 48 55.1 21.6 V G96 – Mt. Lemmon Survey MPS 478631
2015 02 08.42522 10 38 31.44 +08 15 19.7 20.2 V G96 – Mt. Lemmon Survey MPS 579548
2015 02 08.43376 10 38 31.08 +08 15 24.7 20.2 V G96 – Mt. Lemmon Survey MPS 579548
2015 02 08.44231 10 38 30.71 +08 15 28.4 20.2 V G96 – Mt. Lemmon Survey MPS 579548
2015 02 08.45084 10 38 30.36 +08 15 32.9 20.0 V G96 – Mt. Lemmon Survey MPS 579548
2015 02 10.26458 10 37 17.90 +08 30 49.8 20.2 V 691 – Steward Observatory, Kitt Peak-Spacewatch MPS 579548
2015 02 10.28830 10 37 16.89 +08 31 01.9 20.5 V 691 – Steward Observatory, Kitt Peak-Spacewatch MPS 579548
2015 02 10.31992 10 37 15.48 +08 31 18.7 20.2 V 691 – Steward Observatory, Kitt Peak-Spacewatch MPS 579548
2015 02 13.70764 10 34 49.84 +09 00 52.9 20.6 R D29 – Purple Mountain Observatory, XuYi Station MPS 582911
2015 02 13.72616 10 34 48.96 +09 01 02.9 20.0 R D29 – Purple Mountain Observatory, XuYi Station MPS 582911
2015 02 13.74468 10 34 48.09 +09 01 13.4 20.7 R D29 – Purple Mountain Observatory, XuYi Station MPS 582911
2015 02 17.38896 10 32 00.953 +09 34 11.09 20.1 w F51 – Pan-STARRS 1, Haleakala MPS 582911
2015 02 17.40177 10 32 00.315 +09 34 18.22 20.0 w F51 – Pan-STARRS 1, Haleakala MPS 582911
2015 02 17.41461 10 31 59.679 +09 34 25.23 20.1 w F51 – Pan-STARRS 1, Haleakala MPS 582911
2015 02 25.25851 10 25 40.24 +10 46 32.9 19.7 r I41 – Palomar Mountain--ZTF MPS 585438
2015 02 25.26456 10 25 39.94 +10 46 36.4 19.8 r I41 – Palomar Mountain--ZTF MPS 585438
2015 02 25.27169 10 25 39.59 +10 46 40.2 19.7 r I41 – Palomar Mountain--ZTF MPS 585438
2015 02 25.27879 10 25 39.22 +10 46 44.5 19.8 r I41 – Palomar Mountain--ZTF MPS 585438
2015 02 25.28589 10 25 38.87 +10 46 48.0 19.9 r I41 – Palomar Mountain--ZTF MPS 585438
2015 02 25.29301 10 25 38.48 +10 46 51.7 19.8 r I41 – Palomar Mountain--ZTF MPS 585438
2015 02 25.30025 10 25 38.13 +10 46 56.1 19.7 r I41 – Palomar Mountain--ZTF MPS 585438
2015 02 25.30735 10 25 37.75 +10 47 00.1 19.9 r I41 – Palomar Mountain--ZTF MPS 585438
2015 02 25.42720 10 25 31.61 +10 48 05.2 20.0 r I41 – Palomar Mountain--ZTF MPS 585438
2015 02 26.32548 10 24 48.20 +10 56 15.8 20.0 r I41 – Palomar Mountain--ZTF MPS 585438
2015 02 26.33242 10 24 47.85 +10 56 19.8 20.1 r I41 – Palomar Mountain--ZTF MPS 585438
2015 02 26.33939 10 24 47.48 +10 56 23.6 20.0 r I41 – Palomar Mountain--ZTF MPS 585438
2015 02 26.34632 10 24 47.14 +10 56 27.2 20.1 r I41 – Palomar Mountain--ZTF MPS 585438
